Location: Schommer Observatory
(40.5200°N, 74.4500°W)
Time: 23:11:52
(UTC-04:00)

ISS - Pass Details

Date: 23 May 2018
Orbit: 402 x 407 km, 51.6° (Epoch: 25 May)

Event Time Altitude Azimuth Distance (km) Brightness Sun altitude
Rises 00:48:27 0° 307° (NW) 2,319 0.5 -28.9°
Reaches altitude 10° 00:51:34 10° 339° (NNW) 1,458 -0.2 -28.9°
Maximum altitude 00:52:59 12° 5° (N) 1,331 -0.3 -28.9°
Drops below altitude 10° 00:54:24 10° 31° (NNE) 1,457 -0.3 -28.9°
Sets 00:57:30 0° 64° (ENE) 2,316 0.4 -28.9°
